Regional Weather Roundup
Issued by NWS

Home | Current Version | Previous Version | Text Only | Print | Product List | Glossary On
Versions: 1 2 3 4 5 6 7 8 9 10 11 12 13 14 15 16 17 18 19 20 21 22 23 24 25 26 27 28 29 30 31 32 33 34 35 36 37 38 39 40 41 42 43 44 45 46 47 48 49 50
000
ASUS45 KPSR 272210
RWRAZ

ARIZONA HOURLY REGIONAL WEATHER ROUNDUP
NATIONAL WEATHER SERVICE PHOENIX AZ
300 PM MST WED MAY 27 2015

NOTE: FAIR INDICATES FEW OR NO CLOUDS BELOW 12,000 FEET WITH NO
SIGNIFICANT WEATHER AND/OR OBSTRUCTIONS TO VISIBILITY.

AZZ001>003-036-272300-
NORTHWEST ARIZONA

CITY           SKY/WX    TMP DP  RH WIND       PRES   REMARKS
BULLHEAD CITY  MOSUNNY   95  27   8 SW13      29.81F
KINGMAN        MOSUNNY   86  26  11 SW20G26   29.97F
$$

AZZ004>008-015-016-018-272300-
NORTH CENTRAL ARIZONA

CITY           SKY/WX    TMP DP  RH WIND       PRES   REMARKS
GRAND CANYON   SUNNY     73  20  13 SW14G22   30.15F
WILLIAMS       SUNNY     70  28  21 SW13G20   30.23F
PRESCOTT       PTSUNNY   74  34  23 S8        30.09F
FLAGSTAFF      CLOUDY    65  26  23 SW13      30.19F
PAYSON         CLOUDY    75  32  20 SW8       30.11F
PAGE           MOSUNNY   83  34  17 NE10      29.98F
$$

AZZ009>014-017-272300-
NORTHEAST ARIZONA

CITY           SKY/WX    TMP DP  RH WIND       PRES   REMARKS
WINSLOW        CLOUDY    79  28  15 CALM      30.05F
SAINT JOHNS    PTSUNNY   79  25  13 SW8G23    30.07F
WINDOW ROCK    CLOUDY    72  21  14 SW14G20   30.16F
SHOW LOW       MOSUNNY   73  19  13 W10G24    30.14F
$$

AZZ023-272300-
GREATER PHOENIX AREA

CITY           SKY/WX    TMP DP  RH WIND       PRES   REMARKS
PHOENIX        PTSUNNY   96  31  10 S8        29.83F
BUCKEYE        PTSUNNY   91  30  11 W6        29.86F
GLENDALE       PTSUNNY   93  36  13 W7        29.86F
LUKE AFB       PTSUNNY   92  37  14 SW6       29.84F
DEER VALLEY    MOSUNNY   90  31  12 NW6       29.86F
SCOTTSDALE     MOSUNNY   92  25   9 SE6       29.88F
MESA-FALCON    MOSUNNY   91  25   9 S9        29.86F
MESA-GATEWAY   PTSUNNY   91  34  13 VRB5      29.88F
CHANDLER       MOSUNNY   93  32  11 W6        29.85F
$$

AZZ027-028-272300-
SOUTHWEST MARICOPA COUNTY AND PINAL COUNTY

CITY           SKY/WX    TMP DP  RH WIND       PRES   REMARKS
CASA GRANDE    MOSUNNY   91  34  13 NE6       29.84F
GILA BEND      MOSUNNY   93  28  10 VRB6      29.82F
$$

AZZ503-504-507>509-272300-
SOUTHEAST ARIZONA

CITY           SKY/WX    TMP DP  RH WIND       PRES   REMARKS
TUCSON         SUNNY     94   9   4 VRB3      29.92F
DAVIS-MONTHAN  PTSUNNY   92  16   6 CALM      29.90F
RYAN FIELD       N/A     95  23   7 SW18      29.91F
NOGALES        SUNNY     90  13   6 S14       30.00F
SIERRA VISTA   SUNNY     86   1   4 VRB6G23   30.05F
DOUGLAS        SUNNY     87   9   5 MISG      30.00F
SAFFORD        MOSUNNY   91  14   6 S9G23     29.91F
$$

AZZ020-021-025-026-031-272300-
SOUTHWEST ARIZONA

CITY           SKY/WX    TMP DP  RH WIND       PRES   REMARKS
YUMA           MOSUNNY   93  49  22 S9        29.82F
$$

CAZ031-033-041-043-047-048-061-272300-
SOUTHERN CALIFORNIA

CITY           SKY/WX    TMP DP  RH WIND       PRES   REMARKS
DOWNTOWN L.A.  SUNNY     71  54  54 MISG      29.96F
L.A. AIRPORT   MOSUNNY   66  54  65 W14       29.98F
SAN DIEGO      PTSUNNY   68  53  58 NW7G16    30.00F
BURBANK        SUNNY     73  53  49 SE10      29.95F
ONTARIO        SUNNY     78  52  40 W10       29.94F
RIVERSIDE      SUNNY     78  53  41 NW7       29.94F
PALM SPRINGS   MOSUNNY   93  42  17 VRB6      29.84F
EL CENTRO NAS  MOSUNNY   94  47  20 VRB5      29.81F
IMPERIAL       SUNNY     93  49  22 NE8       29.79F
BLYTHE         SUNNY     94  24   8 S9        29.82F
$$

NVZ020-UTZ003-272300-
SOUTHERN NEVADA-UTAH

CITY           SKY/WX    TMP DP  RH WIND       PRES   REMARKS
LAS VEGAS      MOSUNNY   91  32  12 S10G18    29.83F
SALT LAKE CITY PTSUNNY   69  49  48 N14       30.01F
$$

NMZ009-TXZ055-272300-
NEW MEXICO-WEST TEXAS

CITY           SKY/WX    TMP DP  RH WIND       PRES   REMARKS
ALBUQUERQUE    CLOUDY    78  27  15 S13       30.09F
EL PASO        CLOUDY    90  20   7 W7        29.97F
$$


........................KEY........................
SKY/WX - SKY CONDITION/WEATHER
TMP    - TEMPERATURE IN FAHRENHEIT
DP     - DEW POINT IN FAHRENHEIT
RH     - RELATIVE HUMIDITY IN PERCENT
WIND   - DIRECTION AND SPEED IN MILES PER HOUR (MPH)
VRB    - VARIABLE WIND DIRECTION
PRES   - MEAN SEA LEVEL PRESSURE IN INCHES OF MERCURY
         F - FALLING PRESSURE   R - RISING PRESSURE
         S - STEADY PRESSURE
VSB    - VISIBILITY IN MILES
HX     - HEAT INDEX IN FAHRENHEIT
WCI    - WIND CHILL INDEX IN FAHRENHEIT
TC     - TEMPERATURE IN CELSIUS WHICH IS ALSO KNOWN AS
         TEMPERATURE IN CENTIGRADE
AFB    - AIR FORCE BASE
         LUKE AFB IS LUKE AIR FORCE BASE
         DAVIS-MONTHAN IS DAVIS-MONTHAN AIR FORCE BASE
NAS    - NAVAL AIR STATION
         EL CENTRO NAS IS EL CENTRO NAVAL AIR STATION
N/A    - NOT AVAILABLE




USA.gov is the U.S. government's official web portal to all federal, state and local government web resources and services.